owner,sensor,date,latitude,longitude,vertical_datum,sea_water_speed,direction_of_sea_water_velocity,upward_sea_water_velocity,qcFlag
Anadarko,ioos:station:wmo:42377:1,2022-03-01T00:01:00Z,27.2925,-90.9681,21.3,30.3,159.1,-9999.0,'111111111,111111111,999999991'
Anadarko,ioos:station:wmo:42377:1,2022-03-01T00:21:00Z,27.2925,-90.9681,21.3,29.9,153.6,-9999.0,'111111111,111111111,999999991'
Anadarko,ioos:station:wmo:42377:1,2022-03-01T00:41:00Z,27.2925,-90.9681,21.3,29.8,167.2,-9999.0,'111111111,111111111,999999991'
Anadarko,ioos:station:wmo:42377:1,2022-03-01T01:01:00Z,27.2925,-90.9681,21.3,29.9,162.1,-9999.0,'111111111,111111111,999999991'
Anadarko,ioos:station:wmo:42377:1,2022-03-01T01:21:00Z,27.2925,-90.9681,21.3,30.5,155.4,-9999.0,'111111111,111111111,999999991'
Anadarko,ioos:station:wmo:42377:1,2022-03-01T01:41:00Z,27.2925,-90.9681,21.3,30.4,155.1,-9999.0,'111111111,111111111,999999991'
Anadarko,ioos:station:wmo:42377:1,2022-03-01T02:01:00Z,27.2925,-90.9681,21.3,31.7,140.2,-9999.0,'111111111,111111111,999999991'
Anadarko,ioos:station:wmo:42377:1,2022-03-01T02:21:00Z,27.2925,-90.9681,21.3,30.7,141.7,-9999.0,'111111111,111111111,999999991'
Anadarko,ioos:station:wmo:42377:1,2022-03-01T02:41:00Z,27.2925,-90.9681,21.3,30.0,140.4,-9999.0,'111111111,111111111,999999991'
Anadarko,ioos:station:wmo:42377:1,2022-03-01T03:01:00Z,27.2925,-90.9681,21.3,30.8,140.8,-9999.0,'111111111,111111111,999999991'
Anadarko,ioos:station:wmo:42377:1,2022-03-01T03:21:00Z,27.2925,-90.9681,21.3,33.7,125.8,-9999.0,'111111111,111111111,999999991'
Anadarko,ioos:station:wmo:42377:1,2022-03-01T03:41:00Z,27.2925,-90.9681,21.3,34.2,125.8,-9999.0,'111111111,111111111,999999991'
Anadarko,ioos:station:wmo:42377:1,2022-03-01T04:01:00Z,27.2925,-90.9681,21.3,32.0,126.6,-9999.0,'111111111,111111111,999999991'
Anadarko,ioos:station:wmo:42377:1,2022-03-01T04:21:00Z,27.2925,-90.9681,21.3,30.7,130.9,-9999.0,'111111111,111111111,999999991'
Anadarko,ioos:station:wmo:42377:1,2022-03-01T04:41:00Z,27.2925,-90.9681,21.3,31.2,132.8,-9999.0,'111111111,111111111,999999991'
Anadarko,ioos:station:wmo:42377:1,2022-03-01T05:01:00Z,27.2925,-90.9681,21.3,30.9,128.8,-9999.0,'111111111,111111111,999999991'
Anadarko,ioos:station:wmo:42377:1,2022-03-01T05:21:00Z,27.2925,-90.9681,21.3,35.8,117.3,-9999.0,'111111111,111111111,999999991'
Anadarko,ioos:station:wmo:42377:1,2022-03-01T05:41:00Z,27.2925,-90.9681,21.3,34.8,120.0,-9999.0,'111111111,111111111,999999991'
Anadarko,ioos:station:wmo:42377:1,2022-03-01T06:01:00Z,27.2925,-90.9681,21.3,34.3,120.4,-9999.0,'111111111,111111111,999999991'
Anadarko,ioos:station:wmo:42377:1,2022-03-01T06:21:00Z,27.2925,-90.9681,21.3,33.6,119.2,-9999.0,'111111111,111111111,999999991'
Anadarko,ioos:station:wmo:42377:1,2022-03-01T06:41:00Z,27.2925,-90.9681,21.3,34.4,116.6,-9999.0,'111111111,111111111,999999991'
Anadarko,ioos:station:wmo:42377:1,2022-03-01T07:01:00Z,27.2925,-90.9681,21.3,33.7,115.7,-9999.0,'111111111,111111111,999999991'
Anadarko,ioos:station:wmo:42377:1,2022-03-01T07:21:00Z,27.2925,-90.9681,21.3,34.7,116.6,-9999.0,'111111111,111111111,999999991'
Anadarko,ioos:station:wmo:42377:1,2022-03-01T07:41:00Z,27.2925,-90.9681,21.3,34.2,114.9,-9999.0,'111111111,111111111,999999991'
Anadarko,ioos:station:wmo:42377:1,2022-03-01T08:01:00Z,27.2925,-90.9681,21.3,35.0,106.1,-9999.0,'111111111,111111111,999999991'
Anadarko,ioos:station:wmo:42377:1,2022-03-01T08:21:00Z,27.2925,-90.9681,21.3,34.1,104.2,-9999.0,'111111111,111111111,999999991'
Anadarko,ioos:station:wmo:42377:1,2022-03-01T08:41:00Z,27.2925,-90.9681,21.3,32.6,104.2,-9999.0,'111111111,111111111,999999991'
Anadarko,ioos:station:wmo:42377:1,2022-03-01T09:01:00Z,27.2925,-90.9681,21.3,36.2,102.4,-9999.0,'111111111,111111111,999999991'
Anadarko,ioos:station:wmo:42377:1,2022-03-01T09:21:00Z,27.2925,-90.9681,21.3,36.2,99.9,-9999.0,'111111111,111111111,999999991'
Anadarko,ioos:station:wmo:42377:1,2022-03-01T09:41:00Z,27.2925,-90.9681,21.3,36.9,98.9,-9999.0,'111111111,111111111,999999991'
Anadarko,ioos:station:wmo:42377:1,2022-03-01T10:01:00Z,27.2925,-90.9681,21.3,37.9,94.1,-9999.0,'111111111,111111111,999999991'
Anadarko,ioos:station:wmo:42377:1,2022-03-01T10:21:00Z,27.2925,-90.9681,21.3,38.0,93.5,-9999.0,'111111111,111111111,999999991'
Anadarko,ioos:station:wmo:42377:1,2022-03-01T10:41:00Z,27.2925,-90.9681,21.3,41.6,89.3,-9999.0,'111111111,111111111,999999991'
Anadarko,ioos:station:wmo:42377:1,2022-03-01T11:01:00Z,27.2925,-90.9681,21.3,42.8,91.7,-9999.0,'111111111,111111111,999999991'
Anadarko,ioos:station:wmo:42377:1,2022-03-01T11:21:00Z,27.2925,-90.9681,21.3,43.4,92.1,-9999.0,'111111111,111111111,999999991'
Anadarko,ioos:station:wmo:42377:1,2022-03-01T11:41:00Z,27.2925,-90.9681,21.3,43.0,92.0,-9999.0,'111111111,111111111,999999991'
Anadarko,ioos:station:wmo:42377:1,2022-03-01T12:01:00Z,27.2925,-90.9681,21.3,46.1,90.2,-9999.0,'111111111,111111111,999999991'
Anadarko,ioos:station:wmo:42377:1,2022-03-01T12:21:00Z,27.2925,-90.9681,21.3,46.4,94.2,-9999.0,'111111111,111111111,999999991'
Anadarko,ioos:station:wmo:42377:1,2022-03-01T12:41:00Z,27.2925,-90.9681,21.3,46.1,94.2,-9999.0,'111111111,111111111,999999991'
Anadarko,ioos:station:wmo:42377:1,2022-03-01T13:01:00Z,27.2925,-90.9681,21.3,46.6,95.8,-9999.0,'111111111,111111111,999999991'
Anadarko,ioos:station:wmo:42377:1,2022-03-01T13:21:00Z,27.2925,-90.9681,21.3,51.3,93.2,-9999.0,'111111111,111111111,999999991'
Anadarko,ioos:station:wmo:42377:1,2022-03-01T13:41:00Z,27.2925,-90.9681,21.3,49.5,94.8,-9999.0,'111111111,111111111,999999991'
Anadarko,ioos:station:wmo:42377:1,2022-03-01T14:01:00Z,27.2925,-90.9681,21.3,45.2,98.1,-9999.0,'111111111,111111111,999999991'
Anadarko,ioos:station:wmo:42377:1,2022-03-01T14:21:00Z,27.2925,-90.9681,21.3,48.8,97.8,-9999.0,'111111111,111111111,999999991'
Anadarko,ioos:station:wmo:42377:1,2022-03-01T14:41:00Z,27.2925,-90.9681,21.3,57.3,98.1,-9999.0,'111111111,111111111,999999991'
Anadarko,ioos:station:wmo:42377:1,2022-03-01T15:01:00Z,27.2925,-90.9681,21.3,57.8,98.3,-9999.0,'111111111,111111111,999999991'
Anadarko,ioos:station:wmo:42377:1,2022-03-01T15:21:00Z,27.2925,-90.9681,21.3,60.4,96.6,-9999.0,'111111111,111111111,999999991'
Anadarko,ioos:station:wmo:42377:1,2022-03-01T15:41:00Z,27.2925,-90.9681,21.3,65.2,99.7,-9999.0,'111111111,111111111,999999991'
Anadarko,ioos:station:wmo:42377:1,2022-03-01T16:01:00Z,27.2925,-90.9681,21.3,63.1,105.6,-9999.0,'111111111,111111111,999999991'
Anadarko,ioos:station:wmo:42377:1,2022-03-01T16:21:00Z,27.2925,-90.9681,21.3,65.9,103.2,-9999.0,'111111111,111111111,999999991'
Anadarko,ioos:station:wmo:42377:1,2022-03-01T16:41:00Z,27.2925,-90.9681,21.3,65.7,104.7,-9999.0,'111111111,111111111,999999991'
Anadarko,ioos:station:wmo:42377:1,2022-03-01T17:01:00Z,27.2925,-90.9681,21.3,62.5,111.7,-9999.0,'111111111,111111111,999999991'
Anadarko,ioos:station:wmo:42377:1,2022-03-01T17:21:00Z,27.2925,-90.9681,21.3,63.7,110.1,-9999.0,'111111111,111111111,999999991'
Anadarko,ioos:station:wmo:42377:1,2022-03-01T17:41:00Z,27.2925,-90.9681,21.3,62.2,111.1,-9999.0,'111111111,111111111,999999991'
Anadarko,ioos:station:wmo:42377:1,2022-03-01T18:01:00Z,27.2925,-90.9681,21.3,59.5,113.1,-9999.0,'111111111,111111111,999999991'
Anadarko,ioos:station:wmo:42377:1,2022-03-01T18:21:00Z,27.2925,-90.9681,21.3,58.0,118.2,-9999.0,'111111111,111111111,999999991'
Anadarko,ioos:station:wmo:42377:1,2022-03-01T18:41:00Z,27.2925,-90.9681,21.3,55.3,122.7,-9999.0,'111111111,111111111,999999991'
Anadarko,ioos:station:wmo:42377:1,2022-03-01T19:01:00Z,27.2925,-90.9681,21.3,54.0,125.2,-9999.0,'111111111,111111111,999999991'
Anadarko,ioos:station:wmo:42377:1,2022-03-01T19:21:00Z,27.2925,-90.9681,21.3,49.7,136.7,-9999.0,'111111111,111111111,999999991'
Anadarko,ioos:station:wmo:42377:1,2022-03-01T19:41:00Z,27.2925,-90.9681,21.3,48.6,145.4,-9999.0,'111111111,111111111,999999991'
Anadarko,ioos:station:wmo:42377:1,2022-03-01T20:01:00Z,27.2925,-90.9681,21.3,50.2,164.6,-9999.0,'111111111,111111111,999999991'
Anadarko,ioos:station:wmo:42377:1,2022-03-01T20:21:00Z,27.2925,-90.9681,21.3,49.9,165.1,-9999.0,'111111111,111111111,999999991'
Anadarko,ioos:station:wmo:42377:1,2022-03-01T20:41:00Z,27.2925,-90.9681,21.3,47.9,154.0,-9999.0,'111111111,111111111,999999991'
Anadarko,ioos:station:wmo:42377:1,2022-03-01T21:01:00Z,27.2925,-90.9681,21.3,47.9,159.5,-9999.0,'111111111,111111111,999999991'
Anadarko,ioos:station:wmo:42377:1,2022-03-01T21:21:00Z,27.2925,-90.9681,21.3,48.6,163.6,-9999.0,'111111111,111111111,999999991'
Anadarko,ioos:station:wmo:42377:1,2022-03-01T21:41:00Z,27.2925,-90.9681,21.3,47.8,170.2,-9999.0,'111111111,111111111,999999991'
Anadarko,ioos:station:wmo:42377:1,2022-03-01T22:01:00Z,27.2925,-90.9681,21.3,48.1,172.6,-9999.0,'111111111,111111111,999999991'
Anadarko,ioos:station:wmo:42377:1,2022-03-01T22:21:00Z,27.2925,-90.9681,21.3,49.2,177.0,-9999.0,'111111111,111111111,999999991'
Anadarko,ioos:station:wmo:42377:1,2022-03-01T22:41:00Z,27.2925,-90.9681,21.3,49.8,179.3,-9999.0,'111111111,111111111,999999991'
Anadarko,ioos:station:wmo:42377:1,2022-03-01T23:01:00Z,27.2925,-90.9681,21.3,47.5,178.3,-9999.0,'111111111,111111111,999999991'
Anadarko,ioos:station:wmo:42377:1,2022-03-01T23:21:00Z,27.2925,-90.9681,21.3,50.7,185.3,-9999.0,'111111111,111111111,999999991'
Anadarko,ioos:station:wmo:42377:1,2022-03-01T23:41:00Z,27.2925,-90.9681,21.3,53.7,190.1,-9999.0,'111111111,111111111,999999991'
Anadarko,ioos:station:wmo:42377:1,2022-03-02T00:01:00Z,27.2925,-90.9681,21.3,56.1,194.2,-9999.0,'111111111,111111111,999999991'
Anadarko,ioos:station:wmo:42377:1,2022-03-02T00:21:00Z,27.2925,-90.9681,21.3,54.7,194.0,-9999.0,'111111111,111111111,999999991'
Anadarko,ioos:station:wmo:42377:1,2022-03-02T00:41:00Z,27.2925,-90.9681,21.3,54.1,194.3,-9999.0,'111111111,111111111,999999991'
Anadarko,ioos:station:wmo:42377:1,2022-03-02T01:01:00Z,27.2925,-90.9681,21.3,52.0,192.4,-9999.0,'111111111,111111111,999999991'
Anadarko,ioos:station:wmo:42377:1,2022-03-02T01:21:00Z,27.2925,-90.9681,21.3,52.7,194.3,-9999.0,'111111111,111111111,999999991'
Anadarko,ioos:station:wmo:42377:1,2022-03-02T01:41:00Z,27.2925,-90.9681,21.3,54.3,198.6,-9999.0,'111111111,111111111,999999991'
Anadarko,ioos:station:wmo:42377:1,2022-03-02T02:01:00Z,27.2925,-90.9681,21.3,52.7,200.1,-9999.0,'111111111,111111111,999999991'
Anadarko,ioos:station:wmo:42377:1,2022-03-02T02:21:00Z,27.2925,-90.9681,21.3,52.7,199.8,-9999.0,'111111111,111111111,999999991'
Anadarko,ioos:station:wmo:42377:1,2022-03-02T02:41:00Z,27.2925,-90.9681,21.3,51.4,200.9,-9999.0,'111111111,111111111,999999991'
Anadarko,ioos:station:wmo:42377:1,2022-03-02T03:01:00Z,27.2925,-90.9681,21.3,49.3,200.9,-9999.0,'111111111,111111111,999999991'
Anadarko,ioos:station:wmo:42377:1,2022-03-02T03:21:00Z,27.2925,-90.9681,21.3,47.3,200.3,-9999.0,'111111111,111111111,999999991'
Anadarko,ioos:station:wmo:42377:1,2022-03-02T03:41:00Z,27.2925,-90.9681,21.3,45.1,196.2,-9999.0,'111111111,111111111,999999991'
Anadarko,ioos:station:wmo:42377:1,2022-03-02T04:01:00Z,27.2925,-90.9681,21.3,43.8,196.2,-9999.0,'111111111,111111111,999999991'
Anadarko,ioos:station:wmo:42377:1,2022-03-02T04:21:00Z,27.2925,-90.9681,21.3,43.9,197.8,-9999.0,'111111111,111111111,999999991'
Anadarko,ioos:station:wmo:42377:1,2022-03-02T04:41:00Z,27.2925,-90.9681,21.3,42.9,198.1,-9999.0,'111111111,111111111,999999991'
Anadarko,ioos:station:wmo:42377:1,2022-03-02T05:01:00Z,27.2925,-90.9681,21.3,43.1,201.8,-9999.0,'111111111,111111111,999999991'
Anadarko,ioos:station:wmo:42377:1,2022-03-02T05:21:00Z,27.2925,-90.9681,21.3,41.0,198.6,-9999.0,'111111111,111111111,999999991'
Anadarko,ioos:station:wmo:42377:1,2022-03-02T05:41:00Z,27.2925,-90.9681,21.3,38.5,195.0,-9999.0,'111111111,111111111,999999991'
Anadarko,ioos:station:wmo:42377:1,2022-03-02T06:01:00Z,27.2925,-90.9681,21.3,38.1,192.9,-9999.0,'111111111,111111111,999999991'
Anadarko,ioos:station:wmo:42377:1,2022-03-02T06:21:00Z,27.2925,-90.9681,21.3,38.4,196.3,-9999.0,'111111111,111111111,999999991'
Anadarko,ioos:station:wmo:42377:1,2022-03-02T06:41:00Z,27.2925,-90.9681,21.3,38.9,201.9,-9999.0,'111111111,111111111,999999991'
Anadarko,ioos:station:wmo:42377:1,2022-03-02T07:01:00Z,27.2925,-90.9681,21.3,37.9,202.2,-9999.0,'111111111,111111111,999999991'
Anadarko,ioos:station:wmo:42377:1,2022-03-02T07:21:00Z,27.2925,-90.9681,21.3,37.4,201.3,-9999.0,'111111111,111111111,999999991'
Anadarko,ioos:station:wmo:42377:1,2022-03-02T07:41:00Z,27.2925,-90.9681,21.3,35.3,194.6,-9999.0,'111111111,111111111,999999991'
Anadarko,ioos:station:wmo:42377:1,2022-03-02T08:01:00Z,27.2925,-90.9681,21.3,35.2,192.3,-9999.0,'111111111,111111111,999999991'
Anadarko,ioos:station:wmo:42377:1,2022-03-02T08:21:00Z,27.2925,-90.9681,21.3,31.1,185.0,-9999.0,'111111111,111111111,999999991'
Anadarko,ioos:station:wmo:42377:1,2022-03-02T08:41:00Z,27.2925,-90.9681,21.3,29.2,181.6,-9999.0,'111111111,111111111,999999991'
Anadarko,ioos:station:wmo:42377:1,2022-03-02T09:01:00Z,27.2925,-90.9681,21.3,30.4,184.3,-9999.0,'111111111,111111111,999999991'
Anadarko,ioos:station:wmo:42377:1,2022-03-02T09:21:00Z,27.2925,-90.9681,21.3,26.6,173.3,-9999.0,'111111111,111111111,999999991'
Anadarko,ioos:station:wmo:42377:1,2022-03-02T09:41:00Z,27.2925,-90.9681,21.3,26.7,172.7,-9999.0,'111111111,111111111,999999991'
Anadarko,ioos:station:wmo:42377:1,2022-03-02T10:01:00Z,27.2925,-90.9681,21.3,27.8,170.7,-9999.0,'111111111,111111111,999999991'
Anadarko,ioos:station:wmo:42377:1,2022-03-02T10:21:00Z,27.2925,-90.9681,21.3,26.4,159.4,-9999.0,'111111111,111111111,999999991'
Anadarko,ioos:station:wmo:42377:1,2022-03-02T10:41:00Z,27.2925,-90.9681,21.3,27.5,162.2,-9999.0,'111111111,111111111,999999991'
Anadarko,ioos:station:wmo:42377:1,2022-03-02T11:01:00Z,27.2925,-90.9681,21.3,27.6,166.4,-9999.0,'111111111,111111111,999999991'
Anadarko,ioos:station:wmo:42377:1,2022-03-02T11:21:00Z,27.2925,-90.9681,21.3,27.1,166.6,-9999.0,'111111111,111111111,999999991'
Anadarko,ioos:station:wmo:42377:1,2022-03-02T11:41:00Z,27.2925,-90.9681,21.3,26.4,154.7,-9999.0,'111111111,111111111,999999991'
Anadarko,ioos:station:wmo:42377:1,2022-03-02T12:01:00Z,27.2925,-90.9681,21.3,28.2,136.4,-9999.0,'111111111,111111111,999999991'
Anadarko,ioos:station:wmo:42377:1,2022-03-02T12:21:00Z,27.2925,-90.9681,21.3,29.5,129.1,-9999.0,'111111111,111111111,999999991'
Anadarko,ioos:station:wmo:42377:1,2022-03-02T12:41:00Z,27.2925,-90.9681,21.3,32.5,122.3,-9999.0,'111111111,111111111,999999991'
Anadarko,ioos:station:wmo:42377:1,2022-03-02T13:01:00Z,27.2925,-90.9681,21.3,36.2,114.9,-9999.0,'111111111,111111111,999999991'
Anadarko,ioos:station:wmo:42377:1,2022-03-02T13:21:00Z,27.2925,-90.9681,21.3,35.2,117.1,-9999.0,'111111111,111111111,999999991'
Anadarko,ioos:station:wmo:42377:1,2022-03-02T13:41:00Z,27.2925,-90.9681,21.3,35.6,117.6,-9999.0,'111111111,111111111,999999991'
Anadarko,ioos:station:wmo:42377:1,2022-03-02T14:01:00Z,27.2925,-90.9681,21.3,36.3,117.6,-9999.0,'111111111,111111111,999999991'
Anadarko,ioos:station:wmo:42377:1,2022-03-02T14:21:00Z,27.2925,-90.9681,21.3,36.7,116.0,-9999.0,'111111111,111111111,999999991'
Anadarko,ioos:station:wmo:42377:1,2022-03-02T14:41:00Z,27.2925,-90.9681,21.3,35.5,118.2,-9999.0,'111111111,111111111,999999991'
Anadarko,ioos:station:wmo:42377:1,2022-03-02T15:01:00Z,27.2925,-90.9681,21.3,36.3,113.4,-9999.0,'111111111,111111111,999999991'
Anadarko,ioos:station:wmo:42377:1,2022-03-02T15:21:00Z,27.2925,-90.9681,21.3,35.4,112.1,-9999.0,'111111111,111111111,999999991'
Anadarko,ioos:station:wmo:42377:1,2022-03-02T15:41:00Z,27.2925,-90.9681,21.3,35.7,115.0,-9999.0,'111111111,111111111,999999991'
Anadarko,ioos:station:wmo:42377:1,2022-03-02T16:01:00Z,27.2925,-90.9681,21.3,37.2,110.6,-9999.0,'111111111,111111111,999999991'
Anadarko,ioos:station:wmo:42377:1,2022-03-02T16:21:00Z,27.2925,-90.9681,21.3,34.0,115.1,-9999.0,'111111111,111111111,999999991'
Anadarko,ioos:station:wmo:42377:1,2022-03-02T16:41:00Z,27.2925,-90.9681,21.3,33.8,116.3,-9999.0,'111111111,111111111,999999991'
Anadarko,ioos:station:wmo:42377:1,2022-03-02T17:01:00Z,27.2925,-90.9681,21.3,30.8,122.4,-9999.0,'111111111,111111111,999999991'
Anadarko,ioos:station:wmo:42377:1,2022-03-02T17:21:00Z,27.2925,-90.9681,21.3,32.3,120.5,-9999.0,'111111111,111111111,999999991'
Anadarko,ioos:station:wmo:42377:1,2022-03-02T17:41:00Z,27.2925,-90.9681,21.3,31.5,114.6,-9999.0,'111111111,111111111,999999991'
Anadarko,ioos:station:wmo:42377:1,2022-03-02T18:01:00Z,27.2925,-90.9681,21.3,29.5,122.0,-9999.0,'111111111,111111111,999999991'
Anadarko,ioos:station:wmo:42377:1,2022-03-02T18:21:00Z,27.2925,-90.9681,21.3,29.7,121.0,-9999.0,'111111111,111111111,999999991'
Anadarko,ioos:station:wmo:42377:1,2022-03-02T18:41:00Z,27.2925,-90.9681,21.3,29.7,116.2,-9999.0,'111111111,111111111,999999991'
Anadarko,ioos:station:wmo:42377:1,2022-03-02T19:01:00Z,27.2925,-90.9681,21.3,31.1,114.9,-9999.0,'111111111,111111111,999999991'
Anadarko,ioos:station:wmo:42377:1,2022-03-02T19:21:00Z,27.2925,-90.9681,21.3,30.1,119.9,-9999.0,'111111111,111111111,999999991'
Anadarko,ioos:station:wmo:42377:1,2022-03-02T19:41:00Z,27.2925,-90.9681,21.3,29.7,117.9,-9999.0,'111111111,111111111,999999991'
Anadarko,ioos:station:wmo:42377:1,2022-03-02T20:01:00Z,27.2925,-90.9681,21.3,29.8,119.1,-9999.0,'111111111,111111111,999999991'
Anadarko,ioos:station:wmo:42377:1,2022-03-02T20:21:00Z,27.2925,-90.9681,21.3,33.1,114.6,-9999.0,'111111111,111111111,999999991'
Anadarko,ioos:station:wmo:42377:1,2022-03-02T20:41:00Z,27.2925,-90.9681,21.3,34.2,112.1,-9999.0,'111111111,111111111,999999991'
Anadarko,ioos:station:wmo:42377:1,2022-03-02T21:01:00Z,27.2925,-90.9681,21.3,35.0,110.9,-9999.0,'111111111,111111111,999999991'
Anadarko,ioos:station:wmo:42377:1,2022-03-02T21:21:00Z,27.2925,-90.9681,21.3,34.2,111.8,-9999.0,'111111111,111111111,999999991'
Anadarko,ioos:station:wmo:42377:1,2022-03-02T21:41:00Z,27.2925,-90.9681,21.3,32.5,118.9,-9999.0,'111111111,111111111,999999991'
Anadarko,ioos:station:wmo:42377:1,2022-03-02T22:01:00Z,27.2925,-90.9681,21.3,32.6,120.8,-9999.0,'111111111,111111111,999999991'
Anadarko,ioos:station:wmo:42377:1,2022-03-02T22:21:00Z,27.2925,-90.9681,21.3,33.0,114.9,-9999.0,'111111111,111111111,999999991'
Anadarko,ioos:station:wmo:42377:1,2022-03-02T22:41:00Z,27.2925,-90.9681,21.3,31.2,124.1,-9999.0,'111111111,111111111,999999991'
Anadarko,ioos:station:wmo:42377:1,2022-03-02T23:01:00Z,27.2925,-90.9681,21.3,27.5,141.8,-9999.0,'111111111,111111111,999999991'
Anadarko,ioos:station:wmo:42377:1,2022-03-02T23:21:00Z,27.2925,-90.9681,21.3,27.8,137.8,-9999.0,'111111111,111111111,999999991'
Anadarko,ioos:station:wmo:42377:1,2022-03-02T23:41:00Z,27.2925,-90.9681,21.3,28.8,128.4,-9999.0,'111111111,111111111,999999991'
Anadarko,ioos:station:wmo:42377:1,2022-03-03T00:01:00Z,27.2925,-90.9681,21.3,28.1,121.6,-9999.0,'111111111,111111111,999999991'
Anadarko,ioos:station:wmo:42377:1,2022-03-03T00:21:00Z,27.2925,-90.9681,21.3,26.0,135.6,-9999.0,'111111111,111111111,999999991'
Anadarko,ioos:station:wmo:42377:1,2022-03-03T00:41:00Z,27.2925,-90.9681,21.3,24.5,137.3,-9999.0,'111111111,111111111,999999991'
Anadarko,ioos:station:wmo:42377:1,2022-03-03T01:01:00Z,27.2925,-90.9681,21.3,23.3,155.1,-9999.0,'111111111,111111111,999999991'
Anadarko,ioos:station:wmo:42377:1,2022-03-03T01:21:00Z,27.2925,-90.9681,21.3,23.7,162.3,-9999.0,'111111111,111111111,999999991'
Anadarko,ioos:station:wmo:42377:1,2022-03-03T01:41:00Z,27.2925,-90.9681,21.3,23.4,166.9,-9999.0,'111111111,111111111,999999991'
Anadarko,ioos:station:wmo:42377:1,2022-03-03T02:01:00Z,27.2925,-90.9681,21.3,22.3,153.3,-9999.0,'111111111,111111111,999999991'
Anadarko,ioos:station:wmo:42377:1,2022-03-03T02:21:00Z,27.2925,-90.9681,21.3,21.0,154.3,-9999.0,'111111111,111111111,999999991'
Anadarko,ioos:station:wmo:42377:1,2022-03-03T02:41:00Z,27.2925,-90.9681,21.3,19.4,162.0,-9999.0,'111111111,111111111,999999991'
Anadarko,ioos:station:wmo:42377:1,2022-03-03T03:01:00Z,27.2925,-90.9681,21.3,18.2,142.1,-9999.0,'111111111,111111111,999999991'
Anadarko,ioos:station:wmo:42377:1,2022-03-03T03:21:00Z,27.2925,-90.9681,21.3,17.8,151.4,-9999.0,'111111111,111111111,999999991'
Anadarko,ioos:station:wmo:42377:1,2022-03-03T03:41:00Z,27.2925,-90.9681,21.3,19.4,131.7,-9999.0,'111111111,111111111,999999991'
Anadarko,ioos:station:wmo:42377:1,2022-03-03T04:01:00Z,27.2925,-90.9681,21.3,18.5,139.6,-9999.0,'111111111,111111111,999999991'
Anadarko,ioos:station:wmo:42377:1,2022-03-03T04:21:00Z,27.2925,-90.9681,21.3,19.6,141.0,-9999.0,'111111111,111111111,999999991'
Anadarko,ioos:station:wmo:42377:1,2022-03-03T04:41:00Z,27.2925,-90.9681,21.3,21.7,130.9,-9999.0,'111111111,111111111,999999991'
Anadarko,ioos:station:wmo:42377:1,2022-03-03T05:01:00Z,27.2925,-90.9681,21.3,20.1,145.1,-9999.0,'111111111,111111111,999999991'
Anadarko,ioos:station:wmo:42377:1,2022-03-03T05:21:00Z,27.2925,-90.9681,21.3,20.5,181.4,-9999.0,'111111111,111111111,999999991'
Anadarko,ioos:station:wmo:42377:1,2022-03-03T05:41:00Z,27.2925,-90.9681,21.3,21.0,195.5,-9999.0,'111111111,111111111,999999991'
Anadarko,ioos:station:wmo:42377:1,2022-03-03T06:01:00Z,27.2925,-90.9681,21.3,20.9,198.1,-9999.0,'111111111,111111111,999999991'
Anadarko,ioos:station:wmo:42377:1,2022-03-03T06:21:00Z,27.2925,-90.9681,21.3,20.3,200.8,-9999.0,'111111111,111111111,999999991'
Anadarko,ioos:station:wmo:42377:1,2022-03-03T06:41:00Z,27.2925,-90.9681,21.3,19.1,199.9,-9999.0,'111111111,111111111,999999991'
Anadarko,ioos:station:wmo:42377:1,2022-03-03T07:01:00Z,27.2925,-90.9681,21.3,17.7,200.2,-9999.0,'111111111,111111111,999999991'
Anadarko,ioos:station:wmo:42377:1,2022-03-03T07:21:00Z,27.2925,-90.9681,21.3,16.1,200.0,-9999.0,'111111111,111111111,999999991'
Anadarko,ioos:station:wmo:42377:1,2022-03-03T07:41:00Z,27.2925,-90.9681,21.3,14.7,199.9,-9999.0,'111111111,111111111,999999991'
Anadarko,ioos:station:wmo:42377:1,2022-03-03T08:01:00Z,27.2925,-90.9681,21.3,13.9,195.0,-9999.0,'111111111,111111111,999999991'
Anadarko,ioos:station:wmo:42377:1,2022-03-03T08:21:00Z,27.2925,-90.9681,21.3,14.1,194.3,-9999.0,'111111111,111111111,999999991'
Anadarko,ioos:station:wmo:42377:1,2022-03-03T08:41:00Z,27.2925,-90.9681,21.3,13.4,186.0,-9999.0,'111111111,111111111,999999991'
Anadarko,ioos:station:wmo:42377:1,2022-03-03T09:01:00Z,27.2925,-90.9681,21.3,12.3,176.7,-9999.0,'111111111,111111111,999999991'
Anadarko,ioos:station:wmo:42377:1,2022-03-03T09:21:00Z,27.2925,-90.9681,21.3,11.5,151.0,-9999.0,'111111111,111111111,999999991'
Anadarko,ioos:station:wmo:42377:1,2022-03-03T09:41:00Z,27.2925,-90.9681,21.3,12.9,117.8,-9999.0,'111111111,111111111,999999991'
Anadarko,ioos:station:wmo:42377:1,2022-03-03T10:01:00Z,27.2925,-90.9681,21.3,14.2,126.1,-9999.0,'111111111,111111111,999999991'
Anadarko,ioos:station:wmo:42377:1,2022-03-03T10:21:00Z,27.2925,-90.9681,21.3,12.5,114.1,-9999.0,'111111111,111111111,999999991'
Anadarko,ioos:station:wmo:42377:1,2022-03-03T10:41:00Z,27.2925,-90.9681,21.3,10.4,132.3,-9999.0,'111111111,111111111,999999991'
Anadarko,ioos:station:wmo:42377:1,2022-03-03T11:01:00Z,27.2925,-90.9681,21.3,11.3,128.9,-9999.0,'111111111,111111111,999999991'
Anadarko,ioos:station:wmo:42377:1,2022-03-03T11:21:00Z,27.2925,-90.9681,21.3,11.5,128.7,-9999.0,'111111111,111111111,999999991'
Anadarko,ioos:station:wmo:42377:1,2022-03-03T11:41:00Z,27.2925,-90.9681,21.3,12.2,128.0,-9999.0,'111111111,111111111,999999991'
Anadarko,ioos:station:wmo:42377:1,2022-03-03T12:01:00Z,27.2925,-90.9681,21.3,12.7,125.1,-9999.0,'111111111,111111111,999999991'
Anadarko,ioos:station:wmo:42377:1,2022-03-03T12:21:00Z,27.2925,-90.9681,21.3,13.0,126.3,-9999.0,'111111111,111111111,999999991'
Anadarko,ioos:station:wmo:42377:1,2022-03-03T12:41:00Z,27.2925,-90.9681,21.3,14.1,122.2,-9999.0,'111111111,111111111,999999991'
Anadarko,ioos:station:wmo:42377:1,2022-03-03T13:01:00Z,27.2925,-90.9681,21.3,11.7,138.1,-9999.0,'111111111,111111111,999999991'
Anadarko,ioos:station:wmo:42377:1,2022-03-03T13:21:00Z,27.2925,-90.9681,21.3,12.4,136.3,-9999.0,'111111111,111111111,999999991'